This is the latest recevied weather packets stored in our database for station/object N2OCK. If no packets are shown the sender has not sent any weather packets the latest 10 day(s).
| Time | Temp. | Humidity | Pressure | Rain* | Wind** | Luminosity | Snow |
|---|---|---|---|---|---|---|---|
| 1777771143 | 8.89° C | 90% | 1010.9 hPa | 0 mm | - | 0 W/m² | - |
| 1777770840 | 8.89° C | 88% | 1010.9 hPa | 0 mm | - | 0 W/m² | - |
| 1777770537 | 8.89° C | 88% | 1010.7 hPa | 0 mm | - | 0 W/m² | - |
| 1777770234 | 9.44° C | 88% | 1010.8 hPa | 0 mm | - | 0 W/m² | - |
| 1777769930 | 8.89° C | 88% | 1010.7 hPa | 0 mm | - | 0 W/m² | - |
| 1777769628 | 8.89° C | 86% | 1010.7 hPa | 0 mm | - | 0 W/m² | - |
| 1777769324 | 9.44° C | 85% | 1010.6 hPa | 0 mm | - | 0 W/m² | - |
| 1777769022 | 10° C | 85% | 1010.8 hPa | 0 mm | - | 0 W/m² | - |
| 1777768719 | 10° C | 83% | 1010.3 hPa | 0 mm | - | 0 W/m² | - |
| 1777768417 | 10° C | 83% | 1010.5 hPa | 0 mm | - | 0 W/m² | - |
| 1777768113 | 10° C | 82% | 1010.5 hPa | 0 mm | - | 0 W/m² | - |
| 1777767811 | 10° C | 78% | 1010.6 hPa | 0 mm | - | 0 W/m² | - |
| 1777767506 | 10.56° C | 78% | 1010.3 hPa | 0 mm | - | 0 W/m² | - |
| 1777767203 | 10.56° C | 77% | 1010.4 hPa | 0 mm | - | 0 W/m² | - |
| 1777766900 | 11.11° C | 75% | 1010.5 hPa | 0 mm | - | 0 W/m² | - |
| 1777766598 | 11.11° C | 74% | 1010.5 hPa | 0 mm | - | 1 W/m² | - |
| 1777766294 | 11.11° C | 73% | 1010.6 hPa | 0 mm | - | 1 W/m² | - |
| 1777765992 | 11.11° C | 72% | 1010.4 hPa | 0 mm | - | 3 W/m² | - |
| 1777765688 | 11.67° C | 70% | 1010.5 hPa | 0 mm | - | 4 W/m² | - |
| 1777765385 | 11.67° C | 70% | 1010.4 hPa | 0 mm | - | 6 W/m² | - |
| 1777765081 | 12.22° C | 68% | 1010.3 hPa | 0 mm | - | 9 W/m² | - |
| 1777764778 | 12.78° C | 67% | 1010.4 hPa | 0 mm | - | 12 W/m² | - |
| 1777764475 | 12.78° C | 67% | 1010.4 hPa | 0 mm | - | 17 W/m² | - |
| 1777764172 | 12.78° C | 66% | 1010.2 hPa | 0 mm | - | 26 W/m² | - |
| 1777763868 | 13.33° C | 64% | 1010.4 hPa | 0 mm | - | 27 W/m² | - |
* Rain latest hour (hover to see other rain measurements)
** Current wind speed in m/s (hover to see current wind gust speed)